Triuchirapalli, India

11:06 PM IST on April 24, 2018 (GMT +0530)
Tiruchirappalli

Weather History for VOTR - March, 2013

Change the Weather History Date:

Monday, March 18, 2013

  Actual Average Record
Temperature  
Mean Temperature 84 °F -  
Max Temperature 97 °F 93 °F 102 °F (2004)
Min Temperature 72 °F 79 °F 69 °F (2011)
Cooling Degree Days 20    
Growing Degree Days 34 (Base 50)    
Moisture  
Dew Point 69 °F    
Average Humidity 62    
Maximum Humidity 88    
Minimum Humidity 25    
Precipitation  
Precipitation 0.00 in - - ()
Sea Level Pressure  
Sea Level Pressure 29.84 in    
Wind  
Wind Speed 4 mph ()    
Max Wind Speed 14 mph    
Max Gust Speed -    
Visibility 2.8 miles    
Events      
Averages and records for this station are not official NWS values.
T = Trace of Precipitation, MM = Missing Value Source: Averaged Metar Reports

Daily Weather History Graph

Daily Weather History Graph

Search for Another Location

Airport or City:

Astronomy

Mar. 18, 2013 Rise Set
Actual Time 6:20 AM IST 6:25 PM IST
Civil Twilight 5:59 AM IST 6:46 PM IST
Nautical Twilight 5:35 AM IST 7:11 PM IST
Astronomical Twilight 5:10 AM IST 7:35 PM IST
Moon 10:56 AM IST (3/18) 11:53 PM IST (3/18)
Length of Visible Light 12h 47m
Length of Day
12h 05m
Waxing Crescent, 36% of the Moon is Illuminated
Mar 18
Waxing Crescent
Mar 19
First Quarter
Mar 27
Full
Apr 3
Last Quarter
Apr 10
New

Hourly Weather History & Observations

Time (IST) Temp. Heat Index Dew Point Humidity Pressure Visibility Wind Dir Wind Speed Gust Speed Precip Events Conditions
12:40 AM 77.0 °F - 69.8 °F 78% 29.89 in 3.1 mi East 2.3 mph - N/A   Haze
1:10 AM 77.0 °F - 69.8 °F 78% 29.89 in 3.1 mi ENE 3.5 mph - N/A   Haze
1:40 AM 77.0 °F - 69.8 °F 78% 29.89 in 3.1 mi NNE 3.5 mph - N/A   Haze
2:10 AM 77.0 °F - 69.8 °F 78% 29.86 in 2.5 mi NNE 3.5 mph - N/A   Haze
2:30 AM 75 °F - 70 °F 79% 29.86 in 1 mi NNE 3.5 mph - -   Haze
2:40 AM 75.2 °F - 69.8 °F 83% 29.86 in 2.5 mi NNE 2.3 mph - N/A   Haze
3:10 AM 75.2 °F - 69.8 °F 83% 29.86 in 2.5 mi NNE 2.3 mph - N/A   Haze
3:40 AM 73.4 °F - 69.8 °F 88% 29.86 in 2.5 mi North 2.3 mph - N/A   Haze
4:40 AM 73.4 °F - 69.8 °F 88% 29.86 in 1.9 mi Calm Calm - N/A   Haze
5:10 AM 73.4 °F - 69.8 °F 88% 29.86 in 1.9 mi Calm Calm - N/A   Haze
5:30 AM 74 °F - 71 °F 86% 29.87 in 1 mi Calm Calm - -   Haze
5:40 AM 73.4 °F - 69.8 °F 88% 29.86 in 1.6 mi Calm Calm - N/A   Haze
6:10 AM 73.4 °F - 69.8 °F 88% 29.86 in 1.6 mi Calm Calm - N/A   Haze
6:40 AM 73.4 °F - 69.8 °F 88% 29.86 in 1.2 mi Calm Calm - N/A   Mist
7:10 AM 75.2 °F - 69.8 °F 83% 29.89 in 1.2 mi Calm Calm - N/A   Mist
7:40 AM 77.0 °F - 69.8 °F 78% 29.89 in 1.2 mi Calm Calm - N/A   Mist
8:10 AM 78.8 °F - 69.8 °F 74% 29.92 in 1.2 mi Calm Calm - N/A   Mist
8:30 AM 80 °F - 71 °F 68% 29.89 in 2 mi NE 3.5 mph - -   Haze
8:40 AM 80.6 °F 84.6 °F 71.6 °F 74% 29.89 in 1.9 mi NNE 4.6 mph - N/A   Haze
9:40 AM 82.4 °F 87.2 °F 71.6 °F 70% 29.89 in 2.5 mi East 2.3 mph - N/A   Haze
10:10 AM 84.2 °F 88.4 °F 69.8 °F 62% 29.89 in 2.5 mi NNE 2.3 mph - N/A   Haze
10:40 AM 86.0 °F 89.4 °F 68.0 °F 55% 29.89 in 2.5 mi ENE 5.8 mph - N/A   Haze
11:30 AM 91 °F - 67 °F 35% 29.88 in 2 mi NE 6.9 mph - -   Haze
11:40 AM 91.4 °F 95.4 °F 68.0 °F 46% 29.86 in 3.1 mi East 5.8 mph - N/A   Haze
12:10 PM 91.4 °F 95.4 °F 68.0 °F 46% 29.86 in 3.1 mi NE 5.8 mph - N/A   Haze
12:40 PM 93.2 °F 97.7 °F 68.0 °F 44% 29.83 in 3.1 mi ENE 6.9 mph - N/A   Haze
1:10 PM 93.2 °F 97.7 °F 68.0 °F 44% 29.83 in 3.7 mi NE 5.8 mph - N/A   Scattered Clouds
1:40 PM 95.0 °F 99.5 °F 68.0 °F 41% 29.80 in 3.7 mi NE 5.8 mph - N/A   Partly Cloudy
2:10 PM 95.0 °F 98.5 °F 66.2 °F 39% 29.80 in 3.7 mi ENE 9.2 mph - N/A   Partly Cloudy
2:30 PM 97 °F - 65 °F 25% 29.77 in 2 mi NE 9.2 mph - -   Haze
2:40 PM 96.8 °F 101.8 °F 68.0 °F 39% 29.77 in 3.7 mi ENE 10.4 mph - N/A   Partly Cloudy
3:10 PM 96.8 °F 101.8 °F 68.0 °F 39% 29.77 in 3.7 mi East 6.9 mph - N/A   Partly Cloudy
3:40 PM 96.8 °F 101.8 °F 68.0 °F 39% 29.74 in - North - - N/A   Partly Cloudy
4:10 PM 96.8 °F 101.8 °F 68.0 °F 39% 29.74 in 5.0 mi ESE 8.1 mph - N/A   Partly Cloudy
4:40 PM 96.8 °F 101.8 °F 68.0 °F 39% 29.74 in 5.0 mi ESE 11.5 mph - N/A   Partly Cloudy
5:10 PM 95.0 °F 101.3 °F 69.8 °F 44% 29.74 in 5.0 mi East 9.2 mph - N/A   Partly Cloudy
5:30 PM 94 °F - 64 °F 28% 29.74 in 2 mi ESE 9.2 mph - -   Haze
5:40 PM 95.0 °F 98.5 °F 66.2 °F 39% 29.74 in 5.0 mi ESE 9.2 mph - N/A   Unknown
6:10 PM 93.2 °F 96.2 °F 66.2 °F 41% 29.77 in 3.7 mi ESE 9.2 mph - N/A   Unknown
6:40 PM 89.6 °F 92.2 °F 66.2 °F 46% 29.77 in 3.7 mi ESE 12.7 mph - N/A   Unknown
7:40 PM 84.2 °F 88.4 °F 69.8 °F 62% 29.80 in 3.1 mi ESE 13.8 mph - N/A   Haze
8:10 PM 84.2 °F 88.4 °F 69.8 °F 62% 29.80 in 3.1 mi East 8.1 mph - N/A   Haze
8:30 PM 85 °F - 69 °F 49% 29.81 in 2 mi SE 11.5 mph - -   Haze
8:40 PM 84.2 °F 88.4 °F 69.8 °F 62% 29.80 in 3.1 mi ESE 10.4 mph - N/A   Haze
9:10 PM 84.2 °F 88.4 °F 69.8 °F 62% 29.83 in 3.1 mi ESE 12.7 mph - N/A   Haze
9:40 PM 84.2 °F 88.4 °F 69.8 °F 62% 29.86 in 3.1 mi ESE 13.8 mph - N/A   Haze
10:10 PM 82.4 °F 87.2 °F 71.6 °F 70% 29.86 in 3.1 mi ESE 4.6 mph - N/A   Haze
10:40 PM 82.4 °F 87.2 °F 71.6 °F 70% 29.86 in 3.1 mi ESE 5.8 mph - N/A   Haze
11:10 PM 80.6 °F 83.9 °F 69.8 °F 70% 29.86 in 3.1 mi East 4.6 mph - N/A   Haze
11:30 PM 78 °F - 71 °F 74% 29.86 in 2 mi East 3.5 mph - -   Haze
11:40 PM 78.8 °F - 71.6 °F 78% 29.86 in 3.1 mi East 2.3 mph - N/A   Haze